📊 Raw Sensor Data
Showing records 41351 to 41375 of 84,981 total
| ID | Distance (ft) | Battery V | Battery A | Int Temp (°F) | Int Humid (%) | Ext Temp (°F) | Solar V | RSSI | SNR | Time Stamp |
|---|---|---|---|---|---|---|---|---|---|---|
| 43643 | 15.4 | 3.98 | -9 | 56 | 42 | 63 | 4.50 | -68 | 8 | 06/16/2025 07:00 AM |
| 43642 | 15.4 | 4.02 | 8 | 54 | 42 | 61 | 4.50 | -68 | 8 | 06/16/2025 06:45 AM |
| 43641 | 15.3 | 4.01 | 0 | 52 | 42 | 57 | 4.50 | -69 | 7 | 06/16/2025 06:30 AM |
| 43640 | 15.3 | 3.99 | 0 | 50 | 42 | 53 | 4.50 | -69 | 8 | 06/16/2025 06:15 AM |
| 43639 | 15.3 | 3.98 | -7 | 50 | 43 | 52 | 4.50 | -69 | 7 | 06/16/2025 06:00 AM |
| 43638 | 15.3 | 3.91 | -10 | 49 | 43 | 51 | 4.20 | -67 | 9 | 06/16/2025 05:45 AM |
| 43637 | 15.3 | 3.92 | -5 | 49 | 43 | 51 | 0.90 | -68 | 8 | 06/16/2025 05:30 AM |
| 43636 | 15.3 | 3.92 | -5 | 50 | 43 | 51 | 0.00 | -68 | 8 | 06/16/2025 05:15 AM |
| 43635 | 15.3 | 3.92 | -5 | 50 | 43 | 52 | 0.10 | -67 | 8 | 06/16/2025 05:00 AM |
| 43634 | 15.3 | 3.92 | -5 | 51 | 43 | 52 | 0.00 | -67 | 8 | 06/16/2025 04:45 AM |
| 43633 | 15.3 | 3.93 | -5 | 50 | 43 | 52 | 0.00 | -68 | 8 | 06/16/2025 04:30 AM |
| 43632 | 15.3 | 3.99 | -5 | 50 | 43 | 52 | 0.10 | -67 | 8 | 06/16/2025 04:15 AM |
| 43631 | 15.3 | 3.99 | -5 | 50 | 43 | 52 | 0.00 | -66 | 8 | 06/16/2025 04:00 AM |
| 43630 | 15.3 | 3.99 | -5 | 51 | 43 | 52 | 0.00 | -67 | 8 | 06/16/2025 03:45 AM |
| 43629 | 15.3 | 3.93 | -5 | 50 | 43 | 52 | 0.00 | -67 | 8 | 06/16/2025 03:30 AM |
| 43628 | 15.3 | 3.93 | -5 | 50 | 43 | 52 | 0.00 | -67 | 8 | 06/16/2025 03:15 AM |
| 43627 | 15.3 | 3.93 | -5 | 50 | 44 | 52 | 0.00 | -68 | 8 | 06/16/2025 03:00 AM |
| 43626 | 15.3 | 3.93 | -5 | 50 | 43 | 52 | 0.00 | -67 | 8 | 06/16/2025 02:45 AM |
| 43625 | 15.3 | 3.93 | -5 | 51 | 44 | 53 | 0.00 | -69 | 8 | 06/16/2025 02:30 AM |
| 43624 | 15.3 | 3.93 | -5 | 51 | 44 | 53 | 0.00 | -67 | 8 | 06/16/2025 02:15 AM |
| 43623 | 15.3 | 3.93 | -5 | 51 | 44 | 53 | 0.00 | -68 | 8 | 06/16/2025 02:00 AM |
| 43622 | 15.4 | 4.00 | -5 | 51 | 44 | 52 | 0.00 | -68 | 8 | 06/16/2025 01:45 AM |
| 43621 | 15.3 | 4.00 | -5 | 51 | 45 | 53 | 0.10 | -68 | 8 | 06/16/2025 01:30 AM |
| 43620 | 15.3 | 3.93 | -5 | 51 | 45 | 53 | 0.00 | -68 | 8 | 06/16/2025 01:15 AM |
| 43619 | 15.4 | 3.93 | -5 | 52 | 45 | 53 | 0.00 | -67 | 8 | 06/16/2025 01:00 AM |